CW5430 Weather Reports


time (UTC)temp
C
wind
direction
speed
KPH
gust
KPH
rain 1hr
cm
rain 24hr
cm
rain mn
cm
humidity
%
barometer
mb
20260510190508 26 19 1.6 4.8 0.00 0.13 0.00 47 1012.6
20260510190028 26 352 0.0 6.4 0.00 0.13 0.00 49 1012.8
20260510185509 25 9 1.6 11.3 0.00 0.13 0.00 49 1012.8
20260510185009 25 259 3.2 11.3 0.00 0.13 0.00 45 1012.8
20260510184526 26 275 3.2 9.7 0.00 0.13 0.00 46 1012.9
20260510184011 26 231 3.2 9.7 0.00 0.13 0.00 46 1012.9
20260510183507 26 295 1.6 8.0 0.00 0.13 0.00 47 1012.8
20260510183025 26 323 1.6 8.0 0.00 0.13 0.00 43 1012.7
20260510182504 26 279 1.6 6.4 0.00 0.13 0.00 50 1012.8
20260510182008 26 18 1.6 14.5 0.00 0.13 0.00 48 1012.8
20260510181516 26 276 3.2 14.5 0.00 0.13 0.00 51 1012.8
20260510181008 25 295 4.8 14.5 0.00 0.13 0.00 50 1012.9
20260510180511 25 302 3.2 6.4 0.00 0.13 0.00 54 1012.9
20260510180018 25 136 1.6 6.4 0.00 0.13 0.00 51 1012.8
20260510175512 25 185 1.6 6.4 0.00 0.13 0.00 51 1012.9
20260510175009 25 310 3.2 6.4 0.00 0.13 0.00 50 1013.0
20260510174521 25 344 1.6 6.4 0.00 0.13 0.00 52 1012.8
20260510174009 25 166 1.6 6.4 0.00 0.13 0.00 54 1012.9
20260510173508 25 234 1.6 11.3 0.00 0.13 0.00 54 1012.9
20260510173026 25 296 3.2 11.3 0.00 0.13 0.00 55 1012.9
20260510172506 24 261 0.0 4.8 0.00 0.13 0.00 54 1012.9
20260510172006 24 294 1.6 6.4 0.00 0.13 0.00 55 1013.0
20260510171511 24 73 1.6 6.4 0.00 0.13 0.00 52 1013.0
20260510171007 24 213 1.6 3.2 0.00 0.13 0.00 53 1013.0
20260510170510 24 313 1.6 12.9 0.00 0.13 0.00 54 1013.0
20260510170021 24 254 1.6 12.9 0.00 0.13 0.00 53 1013.0
20260510165509 24 163 1.6 6.4 0.00 0.13 0.00 59 1012.9
20260510165009 23 18 1.6 6.4 0.00 0.13 0.00 55 1013.0
20260510164542 23 277 1.6 8.0 0.00 0.13 0.00 56 1013.1
20260510164009 23 278 1.6 8.0 0.00 0.13 0.00 52 1013.1
20260510163510 23 313 3.2 6.4 0.00 0.13 0.00 58 1013.1
20260510163027 23 178 0.0 6.4 0.00 0.13 0.00 57 1013.1
20260510162511 23 300 1.6 11.3 0.00 0.13 0.00 59 1013.2
20260510162013 23 340 1.6 11.3 0.00 0.13 0.00 61 1013.3
20260510161513 22 277 3.2 11.3 0.00 0.13 0.00 60 1013.2
20260510161007 22 227 1.6 9.7 0.00 0.13 0.00 62 1013.2
20260510160507 22 245 1.6 9.7 0.00 0.13 0.00 62 1013.2
20260510160019 22 304 1.6 6.4 0.00 0.13 0.00 63 1013.2
20260510155510 22 213 1.6 11.3 0.00 0.13 0.00 62 1013.2
20260510155007 21 153 3.2 11.3 0.00 0.13 0.00 62 1013.3
20260510154522 21 278 1.6 11.3 0.00 0.13 0.00 62 1013.4
20260510154010 21 252 3.2 11.3 0.00 0.13 0.00 62 1013.4
20260510153508 21 219 3.2 8.0 0.00 0.13 0.00 65 1013.4
20260510153030 21 232 1.6 6.4 0.00 0.13 0.00 66 1013.3
20260510152515 21 263 1.6 6.4 0.00 0.13 0.00 65 1013.5
20260510152010 21 234 1.6 9.7 0.00 0.13 0.00 65 1013.4
20260510151524 21 215 3.2 9.7 0.00 0.13 0.00 65 1013.3
20260510151011 21 277 1.6 3.2 0.00 0.13 0.00 71 1013.4
20260510150505 20 288 1.6 3.2 0.00 0.13 0.00 68 1013.4
20260510150014 20 242 0.0 4.8 0.00 0.13 0.00 73 1013.4
20260510145507 20 240 1.6 4.8 0.00 0.13 0.00 69 1013.5
20260510145007 20 231 1.6 6.4 0.00 0.13 0.00 76 1013.6
20260510144522 19 170 1.6 6.4 0.00 0.13 0.00 74 1013.5
20260510144010 19 296 0.0 6.4 0.00 0.13 0.00 76 1013.6
20260510143508 18 218 0.0 6.4 0.00 0.13 0.00 77 1013.5
20260510143025 18 287 0.0 6.4 0.00 0.13 0.00 78 1013.4
20260510142510 18 235 0.0 6.4 0.00 0.13 0.00 76 1013.4
20260510142015 18 213 1.6 6.4 0.00 0.13 0.00 75 1013.3
20260510141528 17 167 1.6 6.4 0.00 0.13 0.00 78 1013.4
20260510141013 17 232 0.0 8.0 0.00 0.13 0.00 81 1013.5
20260510140511 17 115 1.6 8.0 0.00 0.13 0.00 82 1013.5
20260510140029 17 169 1.6 3.2 0.00 0.13 0.00 83 1013.5
20260510135505 16 241 1.6 3.2 0.00 0.13 0.00 82 1013.3
20260510135004 16 213 1.6 3.2 0.00 0.13 0.00 84 1013.3
20260510134516 16 310 0.0 3.2 0.00 0.13 0.00 87 1013.4
20260510134007 15 204 1.6 3.2 0.00 0.13 0.00 85 1013.3
20260510133507 15 267 1.6 3.2 0.00 0.13 0.00 88 1013.4
20260510133019 15 234 1.6 3.2 0.00 0.13 0.00 90 1013.2
20260510132512 15 236 1.6 3.2 0.00 0.13 0.00 94 1013.3
20260510132010 14 123 0.0 3.2 0.00 0.13 0.00 94 1013.3
20260510131525 13 270 0.0 3.2 0.00 0.13 0.00 94 1013.3
20260510131009 13 189 0.0 3.2 0.00 0.13 0.00 95 1013.3
20260510130509 12 247 0.0 3.2 0.00 0.13 0.00 96 1013.5
20260510130030 12 225 0.0 3.2 0.00 0.13 0.00 96 1013.5
20260510125509 12 219 0.0 3.2 0.00 0.13 0.00 96 1013.5
20260510125012 12 283 0.0 3.2 0.00 0.13 0.00 96 1013.6
20260510124515 12 246 0.0 3.2 0.00 0.13 0.00 96 1013.5
20260510124011 12 270 0.0 3.2 0.00 0.13 0.00 96 1013.4
20260510123510 11 112 0.0 3.2 0.00 0.13 0.00 96 1013.4
20260510123018 11 132 0.0 3.2 0.00 0.13 0.00 96 1013.2
20260510122508 11 109 0.0 3.2 0.00 0.13 0.00 96 1013.1
20260510122010 11 36 0.0 3.2 0.00 0.13 0.00 96 1012.9
20260510121521 11 84 0.0 3.2 0.00 0.13 0.00 96 1013.0
20260510121012 11 123 0.0 3.2 0.00 0.13 0.00 96 1012.9
20260510120511 11 119 1.6 4.8 0.00 0.13 0.00 96 1012.8
20260510120007 11 175 1.6 4.8 0.00 0.13 0.00 96 1012.7
20260510115507 11 102 0.0 3.2 0.00 0.13 0.00 96 1012.8
20260510115003 11 121 0.0 3.2 0.00 0.13 0.00 96 1012.8
20260510114513 11 51 0.0 3.2 0.00 0.13 0.00 96 1012.7
20260510114006 11 11 0.0 3.2 0.00 0.13 0.00 96 1012.9
20260510113507 11 27 0.0 3.2 0.00 0.13 0.00 96 1012.7
20260510113020 11 130 0.0 3.2 0.00 0.13 0.00 96 1012.5
20260510112512 10 68 0.0 3.2 0.00 0.13 0.00 96 1012.5
20260510112007 10 60 1.6 3.2 0.00 0.13 0.00 96 1012.5
20260510111531 10 5 0.0 3.2 0.00 0.13 0.00 96 1012.7
20260510111011 10 360 0.0 3.2 0.00 0.13 0.00 96 1012.7
20260510110515 10 360 0.0 3.2 0.00 0.13 0.00 96 1012.5
20260510110025 10 5 0.0 3.2 0.00 0.13 0.00 96 1012.6
20260510105510 10 9 0.0 3.2 0.00 0.13 0.00 96 1012.5
20260510105007 10 9 0.0 3.2 0.00 0.13 0.00 96 1012.2
20260510104513 10 107 0.0 3.2 0.00 0.13 0.00 96 1012.1
20260510104006 10 22 0.0 3.2 0.00 0.13 0.00 96 1011.9
20260510103504 10 55 0.0 3.2 0.00 0.13 0.00 96 1012.0
20260510103013 10 43 0.0 3.2 0.00 0.13 0.00 96 1012.0
20260510102508 10 111 0.0 3.2 0.00 0.13 0.00 96 1012.0
20260510102008 10 111 0.0 3.2 0.00 0.13 0.00 96 1012.0
20260510101520 10 111 0.0 3.2 0.00 0.13 0.00 96 1011.9
20260510101013 10 352 0.0 3.2 0.00 0.13 0.00 96 1012.0
20260510100516 10 352 0.0 3.2 0.00 0.13 0.00 96 1011.9
20260510100022 10 352 0.0 1.6 0.00 0.13 0.00 96 1011.9
20260510095508 10 352 0.0 3.2 0.00 0.13 0.00 96 1011.7
20260510095011 10 77 0.0 3.2 0.00 0.13 0.00 96 1011.6
20260510094529 10 25 0.0 3.2 0.00 0.13 0.00 96 1011.6
20260510094004 10 26 0.0 3.2 0.00 0.13 0.00 96 1011.7
20260510093509 10 79 0.0 3.2 0.00 0.13 0.00 96 1011.7
20260510093011 10 100 0.0 3.2 0.00 0.13 0.00 96 1011.7
20260510092509 10 100 0.0 3.2 0.00 0.13 0.00 96 1011.7
20260510092012 10 100 0.0 3.2 0.00 0.13 0.00 96 1011.6
20260510091540 10 100 0.0 3.2 0.00 0.13 0.00 96 1011.7
20260510091010 9 100 0.0 3.2 0.00 0.13 0.00 96 1011.8
20260510090509 9 100 0.0 3.2 0.00 0.13 0.00 96 1011.7
20260510090022 9 100 0.0 3.2 0.00 0.13 0.00 96 1011.8
20260510085510 9 111 0.0 3.2 0.00 0.13 0.00 96 1011.8
20260510085009 9 299 1.6 4.8 0.00 0.13 0.00 96 1012.1
20260510084526 9 93 3.2 4.8 0.00 0.13 0.00 96 1011.4
20260510084009 9 300 1.6 3.2 0.00 0.13 0.00 95 1012.0
20260510083518 9 312 1.6 3.2 0.00 0.13 0.00 95 1012.0
20260510083026 9 145 0.0 3.2 0.00 0.13 0.00 95 1011.6
20260510082504 9 64 0.0 3.2 0.00 0.13 0.00 95 1011.1
20260510082005 9 64 0.0 3.2 0.00 0.13 0.00 95 1011.2
20260510081531 9 64 0.0 3.2 0.00 0.13 0.00 95 1011.1
20260510081005 9 64 0.0 3.2 0.00 0.13 0.00 95 1011.2
20260510080508 9 64 0.0 0.0 0.00 0.13 0.00 95 1011.2
20260510080021 9 64 0.0 3.2 0.00 0.13 0.00 95 1011.1
20260510075512 9 64 0.0 3.2 0.00 0.13 0.00 95 1010.9
20260510075007 9 65 0.0 3.2 0.00 0.13 0.00 95 1010.9
20260510074529 9 50 0.0 3.2 0.00 0.13 0.00 95 1011.0
20260510074016 8 50 0.0 3.2 0.00 0.13 0.00 95 1011.1
20260510073522 8 50 0.0 3.2 0.00 0.13 0.00 95 1011.1
20260510073035 8 50 0.0 3.2 0.00 0.13 0.00 95 1011.0
20260510072511 8 15 0.0 3.2 0.00 0.13 0.00 95 1011.0
20260510072010 8 13 0.0 3.2 0.00 0.13 0.00 95 1011.0
20260510071515 8 13 0.0 3.2 0.00 0.13 0.00 95 1011.0
20260510071008 8 13 0.0 3.2 0.00 0.13 0.00 95 1011.0
20260510070506 8 13 0.0 3.2 0.00 0.13 0.00 95 1010.8
20260510070023 8 11 0.0 3.2 0.00 0.13 0.00 95 1010.7
20260510065506 8 45 0.0 3.2 0.00 0.13 0.00 95 1010.6
20260510065009 8 54 0.0 3.2 0.00 0.13 0.00 95 1010.4
20260510064546 8 54 0.0 3.2 0.00 0.13 0.00 95 1010.3
20260510064009 8 54 0.0 3.2 0.00 0.13 0.00 95 1010.3
20260510063507 8 54 0.0 0.0 0.00 0.13 0.00 95 1010.3
20260510063030 9 54 0.0 0.0 0.00 0.13 0.00 95 1010.3
20260510062511 9 54 0.0 0.0 0.00 0.13 0.00 95 1010.4
20260510062010 9 54 0.0 3.2 0.00 0.13 0.00 95 1010.4
20260510061540 9 54 0.0 3.2 0.00 0.13 0.00 95 1010.5
20260510061010 9 54 0.0 3.2 0.00 0.13 0.00 94 1010.4
20260510060506 9 54 0.0 3.2 0.00 0.13 0.00 94 1010.5
20260510060028 9 54 0.0 3.2 0.00 0.13 0.00 95 1010.4
20260510055505 9 54 0.0 3.2 0.00 0.13 0.00 95 1010.6
20260510055006 8 54 0.0 0.0 0.00 0.13 0.00 94 1010.6
20260510054520 9 54 0.0 0.0 0.00 0.13 0.00 94 1010.7
20260510054007 9 54 0.0 0.0 0.00 0.13 0.00 94 1010.7
20260510053511 9 54 0.0 0.0 0.00 0.13 0.00 94 1010.8
20260510053025 9 54 0.0 0.0 0.00 0.13 0.00 94 1010.8
20260510052508 9 54 0.0 0.0 0.00 0.13 0.00 94 1010.9
20260510052012 9 54 0.0 0.0 0.00 0.13 0.00 94 1010.9
20260510051526 9 54 0.0 3.2 0.00 0.13 0.00 94 1010.9
20260510051009 9 54 0.0 3.2 0.00 0.13 0.00 94 1010.9
20260510050509 9 54 0.0 3.2 0.00 0.13 0.00 94 1010.9
20260510050029 9 54 0.0 1.6 0.00 0.13 0.00 94 1010.9
20260510045510 9 54 0.0 0.0 0.00 0.13 0.00 94 1011.0
20260510045010 9 54 0.0 0.0 0.00 0.13 0.00 94 1011.0
20260510044523 9 54 0.0 0.0 0.00 0.13 0.00 94 1011.1
20260510044011 9 54 0.0 0.0 0.00 0.13 0.00 94 1011.0
20260510043511 9 54 0.0 0.0 0.00 0.13 0.00 94 1011.1
20260510043022 10 54 0.0 0.0 0.00 0.13 0.00 94 1011.1
20260510042506 10 54 0.0 0.0 0.00 0.13 0.00 94 1011.2
20260510042010 10 54 0.0 0.0 0.00 0.13 0.00 94 1011.2
20260510041522 10 54 0.0 0.0 0.00 0.13 0.00 94 1011.1
20260510041008 10 54 0.0 0.0 0.00 0.13 0.00 94 1011.2
20260510040507 10 54 0.0 0.0 0.00 0.13 0.00 93 1011.4
20260510040027 10 54 0.0 0.0 0.00 0.13 0.00 93 1011.2
20260510035510 10 54 0.0 0.0 0.00 0.13 0.13 93 1011.2
20260510035010 10 54 0.0 0.0 0.00 0.13 0.13 93 1011.1
20260510034528 10 54 0.0 0.0 0.00 0.13 0.13 93 1011.1
20260510034011 10 54 0.0 0.0 0.00 0.13 0.13 93 1010.9
20260510033507 10 54 0.0 0.0 0.00 0.13 0.13 93 1010.8
20260510033019 10 54 0.0 0.0 0.00 0.13 0.13 94 1010.8
20260510032507 10 54 0.0 0.0 0.00 0.13 0.13 94 1010.7
20260510032011 10 54 0.0 3.2 0.00 0.13 0.13 94 1010.8
20260510031527 10 54 0.0 3.2 0.00 0.13 0.13 94 1010.7
20260510031011 10 54 0.0 0.0 0.00 0.13 0.13 93 1010.6
20260510030507 10 54 0.0 0.0 0.00 0.13 0.13 93 1010.6
20260510030027 10 54 0.0 0.0 0.00 0.13 0.13 93 1010.6
20260510025508 10 54 0.0 3.2 0.00 0.13 0.13 93 1010.6
20260510025011 10 54 0.0 3.2 0.00 0.13 0.13 93 1010.7
20260510024532 10 54 0.0 3.2 0.00 0.13 0.13 93 1010.7
20260510024011 10 54 0.0 3.2 0.00 0.13 0.13 93 1010.7
20260510023510 10 54 0.0 0.0 0.00 0.13 0.13 93 1010.7
20260510023020 11 54 0.0 0.0 0.00 0.13 0.13 93 1010.6
20260510022508 11 54 0.0 0.0 0.00 0.13 0.13 93 1010.7
20260510022011 11 54 0.0 0.0 0.00 0.13 0.13 93 1010.6
20260510021506 11 54 0.0 0.0 0.00 0.13 0.13 92 1010.6
20260510021003 11 54 0.0 0.0 0.00 0.13 0.13 93 1010.6
20260510020503 11 54 0.0 3.2 0.00 0.13 0.13 93 1010.6
20260510020004 11 54 0.0 3.2 0.00 0.13 0.13 93 1010.4
20260510015504 11 54 0.0 3.2 0.00 0.13 0.13 93 1010.5
20260510015003 11 54 0.0 3.2 0.00 0.13 0.13 93 1010.4
20260510014515 11 54 0.0 3.2 0.00 0.13 0.13 93 1010.4
20260510014006 11 54 0.0 3.2 0.00 0.13 0.13 93 1010.4
20260510013505 11 66 0.0 3.2 0.00 0.13 0.13 92 1010.5
20260510013020 11 79 0.0 3.2 0.00 0.13 0.13 92 1010.5
20260510012508 12 80 0.0 3.2 0.00 0.13 0.13 92 1010.4
20260510012007 12 80 0.0 3.2 0.00 0.13 0.13 92 1010.4
20260510011524 12 80 0.0 3.2 0.00 0.13 0.13 92 1010.4
20260510011008 12 98 0.0 3.2 0.00 0.13 0.13 92 1010.4
20260510010509 12 106 0.0 3.2 0.00 0.13 0.13 92 1010.4
20260510010004 12 125 0.0 3.2 0.00 0.13 0.13 92 1010.3
20260510005503 12 105 0.0 3.2 0.00 0.13 0.13 92 1010.4
20260510005003 12 117 0.0 3.2 0.00 0.13 0.13 92 1010.2
20260510004507 12 83 0.0 3.2 0.00 0.13 0.13 92 1010.1
20260510004013 12 78 0.0 3.2 0.00 0.13 0.13 91 1010.2
20260510003505 12 87 0.0 3.2 0.00 0.13 0.13 91 1010.1
20260510003013 12 87 0.0 1.6 0.00 0.13 0.13 91 1010.2
20260510002507 12 87 0.0 0.0 0.00 0.13 0.13 91 1010.2
20260510002007 12 87 0.0 3.2 0.00 0.13 0.13 91 1010.2
20260510001518 12 87 0.0 3.2 0.00 0.13 0.13 91 1010.2
20260510001008 12 91 0.0 3.2 0.00 0.13 0.13 90 1010.2
20260510000507 12 91 0.0 3.2 0.00 0.13 0.13 90 1010.3
20260510000025 12 91 0.0 3.2 0.00 0.13 0.13 89 1010.3
20260509235507 13 91 0.0 0.0 0.00 0.13 0.13 89 1010.2
20260509235004 13 91 0.0 0.0 0.00 0.13 0.13 89 1010.2
20260509234517 13 91 0.0 0.0 0.00 0.13 0.13 89 1010.2
20260509234004 13 91 0.0 0.0 0.00 0.13 0.13 89 1010.2
20260509233503 13 91 0.0 0.0 0.00 0.13 0.13 88 1010.2
20260509233016 13 91 0.0 1.6 0.00 0.13 0.13 88 1010.1
20260509232506 13 91 0.0 3.2 0.00 0.13 0.13 88 1010.1
20260509232007 13 91 0.0 3.2 0.00 0.13 0.13 88 1010.0
20260509231516 13 91 0.0 3.2 0.00 0.13 0.13 88 1010.0
20260509231007 13 28 0.0 3.2 0.00 0.13 0.13 88 1010.0
20260509230510 13 77 0.0 3.2 0.00 0.13 0.13 88 1010.0
20260509230022 13 94 0.0 3.2 0.00 0.13 0.13 89 1009.9
20260509225511 13 59 0.0 3.2 0.00 0.13 0.13 89 1010.0
20260509225009 13 19 0.0 3.2 0.00 0.13 0.13 89 1010.0
20260509224524 13 144 0.0 3.2 0.00 0.13 0.13 89 1010.1
20260509224006 13 49 1.6 3.2 0.00 0.13 0.13 89 1010.0
20260509223505 13 106 0.0 3.2 0.00 0.13 0.13 89 1010.0
20260509223007 13 133 1.6 3.2 0.00 0.13 0.13 89 1010.0
20260509222508 13 153 1.6 3.2 0.00 0.13 0.13 89 1010.0
20260509222008 13 155 0.0 3.2 0.00 0.13 0.13 88 1010.0
20260509221511 13 137 1.6 3.2 0.00 0.13 0.13 88 1010.0
20260509221004 13 115 0.0 3.2 0.00 0.13 0.13 88 1010.1
20260509220507 13 94 0.0 3.2 0.00 0.13 0.13 89 1010.2
20260509220022 13 103 0.0 3.2 0.00 0.13 0.13 88 1010.3
20260509215510 13 101 0.0 3.2 0.10 0.13 0.13 88 1010.1
20260509215017 13 111 0.0 3.2 0.13 0.13 0.13 88 1010.1
20260509214522 13 75 0.0 3.2 0.13 0.13 0.13 88 1010.2
20260509214012 13 107 0.0 3.2 0.13 0.13 0.13 87 1010.3
20260509213512 13 123 0.0 3.2 0.13 0.13 0.13 87 1010.4
20260509213004 13 134 0.0 3.2 0.13 0.13 0.13 87 1010.6
20260509212504 13 117 0.0 3.2 0.13 0.13 0.13 87 1010.6
20260509212005 13 116 0.0 3.2 0.13 0.13 0.13 88 1010.6
20260509211508 13 141 0.0 3.2 0.13 0.13 0.13 88 1010.6
20260509211007 13 26 0.0 3.2 0.13 0.13 0.13 87 1010.4
20260509210506 13 24 0.0 3.2 0.13 0.13 0.13 86 1010.3
20260509210020 13 360 0.0 3.2 0.13 0.13 0.13 85 1010.4
20260509205508 13 65 0.0 3.2 0.03 0.03 0.03 83 1010.3
20260509205008 14 68 0.0 3.2 0.00 0.00 0.00 82 1010.5
20260509204522 14 253 0.0 3.2 0.00 0.00 0.00 82 1010.3
20260509204014 14 44 0.0 4.8 0.00 0.00 0.00 82 1009.9
20260509203508 14 14 0.0 4.8 0.00 0.00 0.00 81 1010.1
20260509203033 15 15 0.0 3.2 0.00 0.00 0.00 81 1010.2
20260509202508 15 17 1.6 4.8 0.00 0.00 0.00 81 1010.3
20260509202015 15 28 1.6 4.8 0.00 0.00 0.00 82 1010.2
20260509201513 15 335 1.6 4.8 0.00 0.00 0.00 82 1010.1
20260509201008 15 11 0.0 4.8 0.00 0.00 0.00 82 1010.0
20260509200503 15 24 0.0 4.8 0.00 0.00 0.00 82 1010.0
20260509200014 15 327 0.0 4.8 0.00 0.00 0.00 81 1010.2
20260509195507 15 331 0.0 3.2 0.00 0.00 0.00 81 1010.4
20260509195010 15 313 0.0 3.2 0.00 0.00 0.00 80 1010.4
20260509194519 15 320 0.0 3.2 0.00 0.00 0.00 80 1010.3
20260509194009 15 312 1.6 3.2 0.00 0.00 0.00 80 1010.5
20260509193509 15 346 0.0 3.2 0.00 0.00 0.00 82 1010.6
20260509193025 14 346 0.0 3.2 0.00 0.00 0.00 82 1010.7
20260509192510 14 57 0.0 3.2 0.00 0.00 0.00 82 1010.8
20260509192012 14 346 1.6 3.2 0.00 0.00 0.00 82 1010.9
20260509191524 14 360 0.0 3.2 0.00 0.00 0.00 82 1011.0
20260509191013 14 306 0.0 3.2 0.00 0.00 0.00 81 1011.2